Temp
59 59 59 59 59 59 59 59 59 59 60 61 61 62 62 63 64 69 58 61 63 65 64 70 75 75 76 68 71 69 56 51 54 54 53 61 56 60 60 53 54 55 53 55 59
59 59 59 59 59 59 59 59 59 59 60 61 61 62 62 62 68 60 64 66 66 66 69 69 70 73 66 65 65 61 54 54 61 60 56 60 58 56 55 53 52 52 56 58 57
59 58 58 58 58 58 58 58 58 59 59 60 61 62 62 62 63 60 66 66 66 66 71 70 71 71 62 63 61 60 52 59 60 61 61 58 57 59 53 47 49 48 51 54 53
58 58 57 57 57 58 58 58 58 59 59 60 61 61 61 65 54 63 65 66 66 68 70 69 68 62 58 55 62 55 60 59 58 59 59 54 56 49 50 48 54 52 53 53 51
58 57 57 57 57 57 58 58 58 59 59 60 61 61 62 60 56 68 65 66 70 69 65 65 64 62 55 58 59 53 55 57 57 58 57 58 51 47 47 51 53 54 54 50 50
58 57 56 56 56 57 57 58 58 59 60 60 62 61 61 56 64 68 65 65 66 67 63 65 62 63 56 55 54 55 55 54 56 56 55 50 49 50 48 52 52 53 49 48 49
58 57 56 56 56 56 57 57 58 59 60 61 62 64 61 53 66 66 67 63 65 65 60 62 63 59 57 51 59 55 48 51 52 54 52 53 45 43 47 52 50 49 46 48 49
57 57 56 56 56 56 57 57 58 59 60 61 62 61 52 64 66 65 67 65 67 67 63 63 64 58 55 57 55 50 47 40 48 52 51 48 37 45 50 48 47 47 44 47 48
57 56 56 56 56 56 56 57 58 59 61 62 60 58 51 65 61 64 64 61 63 64 62 68 61 53 53 47 42 44 36 41 42 51 49 46 38 45 51 49 46 45 46 47 46
57 56 56 56 56 56 56 58 60 60 62 67 65 55 56 53 57 61 64 62 60 59 58 57 54 48 48 43 34 37 40 43 40 46 46 43 40 44 48 49 45 45 45 45 45
57 56 56 56 56 56 56 58 56 54 57 52 53 54 56 60 60 59 60 60 60 57 50 51 46 40 46 47 47 46 45 41 41 45 43 42 41 42 46 47 45 44 44 44 45
57 56 56 56 56 56 55 57 57 57 48 55 55 54 58 58 54 57 62 54 54 48 50 47 42 47 50 49 46 44 41 37 41 44 40 41 40 44 45 45 45 45 45 44 45
56 56 56 56 55 53 54 58 61 60 52 50 54 55 55 57 52 52 57 54 51 48 46 43 45 50 49 45 46 41 40 35 37 40 41 37 35 41 45 46 47 47 47 45 44
56 56 55 55 49 56 53 63 60 59 43 45 48 51 54 56 48 56 57 52 49 47 47 43 47 47 43 44 43 35 44 43 38 34 28 39 23 36 42 41 42 43 41 41 43
56 56 55 56 52 53 57 61 59 56 29 48 46 57 54 50 49 49 55 52 47 45 44 38 40 38 41 41 44 38 43 41 39 33 30 29 24 35 42 37 39 41 42 42 42
56 55 55 52 51 54 59 59 55 37 29 35 45 44 45 48 48 50 50 52 52 46 44 40 46 43 41 44 44 45 40 39 36 32 18 31 29 31 35 39 41 43 43 42 41
55 55 53 56 49 56 56 53 33 30 42 33 37 43 44 40 43 45 44 40 37 32 33 38 38 41 45 36 40 40 33 21 19 15 18 30 27 35 41 43 46 44 43 40 40
55 54 53 55 54 54 50 40 28 34 34 42 42 42 39 41 41 42 40 37 43 40 34 31 26 37 43 39 35 34 32 25 17 18 22 29 21 34 42 45 46 47 44 41 39
54 50 49 52 52 51 45 30 34 34 37 37 40 32 33 39 38 38 38 39 43 42 36 34 28 38 40 42 39 33 26 32 19 13 17 27 32 35 40 39 40 41 41 37 38
47 45 46 52 51 47 35 37 37 48 45 42 35 35 29 29 35 35 37 43 43 45 44 40 26 34 35 39 37 33 37 24 22 14 13 24 27 33 31 35 36 37 36 36 37
45 39 46 50 49 40 30 34 39 49 49 42 37 31 35 29 34 33 35 41 46 43 44 40 34 28 34 31 30 28 25 27 30 27 18 16 25 41 38 37 35 38 39 38 36
42 33 43 50 33 32 32 36 48 45 47 46 45 39 34 33 32 34 36 40 47 44 35 40 34 23 28 34 36 34 32 30 23 21 23 20 23 39 39 41 40 39 40 39 37
40 32 41 44 27 29 35 40 46 42 40 40 40 43 39 32 29 33 38 36 44 42 36 37 28 18 25 28 30 29 32 33 23 22 18 16 28 36 35 34 39 36 36 34 35
35 26 30 33 40 37 34 34 37 44 42 43 40 41 36 29 33 29 32 33 36 39 42 42 29 29 29 32 29 26 31 33 24 17 20 29 31 31 31 32 36 36 35 33 33
35 30 32 26 29 36 40 37 36 32 39 42 34 37 36 26 27 28 30 31 35 39 33 33 24 22 24 29 29 31 30 31 24 31 24 35 31 37 32 32 33 34 33 32 31
33 31 31 32 36 34 38 36 37 39 37 34 32 37 35 32 37 30 30 30 32 32 29 30 22 24 19 28 27 24 30 30 32 30 29 33 32 40 38 32 31 32 32 31 30
36 38 37 36 33 31 35 38 39 42 40 45 40 39 37 36 36 39 38 37 35 30 25 24 22 19 18 24 21 13 26 30 33 28 33 27 36 38 30 32 31 30 32 31 30
MSLP
1019.13 1019.04 1019.06 1019.09 1018.89 1018.69 1018.66 1018.59 1018.37 1018.09 1017.87 1017.46 1017.25 1016.91 1016.45 1016.18 1015.85 1015.53 1016.46 1017.29 1016.91 1016.26 1015.68 1014.32 1013.39 1012.68 1012.58 1012.88 1012.77 1012.57 1013.21 1014.64 1015.70 1016.84 1018.13 1018.96 1019.78 1020.61 1021.96 1022.77 1023.15 1024.22 1024.93 1025.45 1025.61
1019.08 1019.15 1019.13 1019.16 1019.06 1018.89 1018.78 1018.68 1018.46 1018.19 1017.91 1017.60 1017.35 1017.11 1016.73 1016.36 1015.99 1016.24 1017.39 1016.96 1016.50 1016.09 1015.39 1014.35 1013.64 1013.03 1013.24 1013.54 1013.56 1013.35 1014.02 1015.46 1015.93 1016.79 1018.20 1018.95 1020.08 1021.10 1022.15 1023.25 1024.16 1024.90 1025.39 1025.59 1025.86
1019.12 1019.27 1019.24 1019.21 1019.18 1019.08 1018.88 1018.69 1018.47 1018.37 1017.93 1017.66 1017.45 1017.17 1016.91 1016.65 1016.39 1016.84 1016.88 1016.58 1016.06 1015.92 1015.38 1014.89 1014.06 1013.53 1014.01 1014.63 1014.78 1014.57 1015.75 1016.58 1017.28 1017.76 1018.55 1019.51 1020.58 1021.15 1022.50 1024.21 1024.92 1025.46 1025.87 1026.03 1026.19
1019.10 1019.18 1019.29 1019.35 1019.25 1019.10 1018.95 1018.82 1018.43 1018.35 1017.99 1017.86 1017.48 1017.22 1017.05 1016.62 1017.27 1016.95 1016.84 1016.37 1015.74 1015.54 1015.02 1014.81 1014.22 1014.02 1014.77 1015.42 1015.63 1016.30 1017.27 1018.07 1018.74 1019.00 1019.72 1020.65 1021.55 1022.91 1023.27 1024.98 1025.54 1025.83 1026.06 1026.36 1026.63
1019.05 1019.18 1019.29 1019.40 1019.28 1019.16 1018.95 1018.81 1018.59 1018.30 1018.17 1017.94 1017.60 1017.33 1017.15 1016.86 1017.46 1017.13 1016.81 1016.28 1015.36 1015.32 1015.10 1014.85 1014.59 1014.72 1015.54 1016.26 1016.81 1017.56 1018.68 1019.45 1019.78 1019.86 1020.54 1021.43 1022.63 1023.60 1024.72 1025.32 1025.77 1026.11 1026.45 1026.88 1027.11
1018.88 1019.14 1019.27 1019.32 1019.31 1019.19 1018.98 1018.63 1018.54 1018.35 1018.25 1018.01 1017.71 1017.49 1017.33 1017.44 1017.82 1017.42 1016.87 1016.46 1015.85 1015.53 1015.37 1015.19 1015.41 1015.45 1016.43 1017.33 1017.56 1018.66 1019.52 1020.21 1020.67 1020.89 1021.75 1022.48 1023.48 1023.72 1025.31 1025.63 1026.04 1026.39 1026.82 1027.08 1027.37
1018.58 1018.93 1019.10 1019.37 1019.29 1019.17 1018.89 1018.56 1018.37 1018.32 1018.18 1018.06 1017.79 1017.40 1016.98 1018.06 1017.76 1017.38 1016.97 1016.61 1016.27 1016.03 1016.03 1016.09 1016.06 1016.15 1017.32 1018.24 1018.78 1019.45 1020.04 1020.78 1021.40 1021.69 1022.24 1022.87 1023.93 1024.71 1025.23 1025.55 1026.05 1026.45 1026.82 1027.09 1027.39
1018.43 1018.84 1018.93 1019.18 1019.19 1019.12 1018.84 1018.61 1018.33 1018.19 1018.13 1017.91 1017.71 1017.43 1017.76 1017.97 1017.85 1017.52 1017.00 1016.67 1016.60 1016.55 1016.55 1016.55 1016.53 1016.91 1017.70 1018.65 1019.41 1019.81 1020.24 1021.02 1021.82 1021.97 1022.46 1023.11 1024.20 1024.83 1025.20 1025.63 1026.04 1026.51 1026.89 1027.20 1027.45
1018.20 1018.65 1018.76 1019.10 1019.24 1019.03 1018.82 1018.54 1018.29 1018.18 1017.80 1017.68 1017.62 1017.46 1018.04 1017.91 1017.91 1017.95 1017.59 1017.22 1016.92 1016.88 1016.90 1016.74 1016.80 1017.96 1018.60 1018.86 1019.56 1020.11 1020.31 1020.77 1022.04 1022.14 1022.51 1023.35 1024.16 1024.66 1025.04 1025.35 1025.76 1026.22 1026.63 1026.94 1027.30
1017.88 1018.44 1018.75 1018.88 1019.19 1019.13 1018.78 1018.41 1018.01 1017.95 1017.53 1017.24 1017.28 1017.79 1018.21 1018.29 1018.25 1018.14 1017.70 1017.46 1017.09 1017.03 1017.02 1016.94 1017.18 1018.02 1018.52 1018.49 1018.99 1019.39 1019.77 1020.57 1021.40 1022.05 1022.53 1023.11 1023.91 1024.61 1024.75 1025.11 1025.58 1026.05 1026.56 1026.90 1027.24
1017.61 1018.11 1018.51 1018.94 1018.96 1019.02 1018.82 1018.24 1018.40 1017.94 1017.66 1017.87 1017.89 1017.84 1017.92 1018.23 1018.35 1018.09 1017.91 1017.52 1017.05 1017.04 1017.24 1017.52 1017.77 1018.11 1018.15 1018.25 1018.49 1018.64 1019.39 1020.57 1021.65 1022.29 1022.69 1023.10 1023.88 1024.58 1024.85 1025.09 1025.50 1025.86 1026.29 1026.66 1026.99
1017.17 1017.75 1018.18 1018.75 1018.88 1018.98 1018.96 1017.79 1017.21 1017.52 1017.90 1018.20 1018.27 1018.29 1018.31 1018.13 1018.07 1018.09 1017.94 1017.76 1017.19 1017.33 1017.75 1018.18 1018.38 1018.79 1018.82 1019.12 1019.12 1019.01 1019.84 1021.31 1022.43 1022.96 1023.33 1023.39 1023.82 1024.16 1024.50 1024.76 1025.06 1025.56 1025.91 1026.43 1026.93
1016.71 1017.52 1017.79 1018.30 1018.84 1018.78 1018.33 1017.48 1017.05 1017.00 1017.56 1018.25 1018.31 1018.21 1018.50 1018.54 1018.11 1018.31 1018.24 1017.73 1017.50 1017.83 1018.17 1018.56 1019.45 1019.45 1019.22 1019.49 1019.85 1020.36 1020.88 1021.82 1022.53 1023.33 1023.61 1023.85 1023.90 1023.59 1023.88 1024.51 1024.66 1025.01 1025.53 1026.23 1026.86
1016.16 1017.05 1017.56 1017.85 1019.33 1017.46 1017.51 1017.01 1017.54 1017.03 1017.82 1018.44 1018.35 1018.40 1018.63 1018.38 1018.65 1018.71 1018.56 1018.52 1018.19 1018.28 1018.66 1019.70 1020.20 1020.10 1020.12 1020.16 1020.78 1021.59 1021.83 1022.22 1023.14 1023.75 1024.07 1024.09 1024.13 1022.94 1023.34 1023.87 1024.40 1025.21 1025.75 1026.47 1026.90
1015.87 1016.61 1017.25 1017.05 1017.40 1017.18 1016.63 1016.77 1017.66 1017.31 1018.09 1018.18 1018.60 1018.81 1018.51 1018.68 1018.90 1019.02 1019.06 1018.60 1018.66 1019.07 1019.50 1020.54 1020.89 1021.04 1021.20 1021.36 1021.15 1022.23 1022.47 1022.98 1023.52 1024.16 1024.64 1024.84 1025.14 1022.12 1022.38 1023.12 1023.52 1024.54 1025.40 1026.04 1026.62
1015.45 1016.35 1017.50 1017.45 1017.59 1017.07 1016.76 1016.54 1017.82 1018.60 1017.61 1018.11 1018.62 1018.72 1018.68 1018.91 1019.01 1019.25 1019.24 1019.15 1019.05 1019.54 1020.16 1021.11 1021.45 1021.62 1022.04 1022.31 1022.25 1022.58 1023.16 1023.83 1024.36 1025.06 1025.53 1024.39 1024.47 1021.92 1021.85 1021.08 1022.18 1023.42 1024.44 1025.50 1026.49
1014.87 1016.00 1017.07 1017.00 1016.72 1016.94 1016.94 1017.02 1018.78 1018.10 1016.99 1017.72 1018.32 1018.50 1018.56 1019.17 1019.28 1019.13 1019.25 1019.38 1019.27 1019.87 1020.61 1021.66 1022.25 1022.62 1022.69 1023.05 1023.40 1023.60 1023.72 1024.95 1025.95 1026.24 1025.73 1024.89 1024.43 1020.84 1020.40 1020.19 1020.67 1022.05 1023.74 1025.17 1026.39
1014.04 1015.45 1016.38 1016.76 1016.80 1017.08 1017.25 1017.39 1016.89 1015.56 1016.92 1016.98 1017.75 1018.54 1018.55 1018.92 1019.18 1019.18 1019.07 1019.10 1018.83 1019.00 1019.95 1020.93 1022.61 1022.86 1022.93 1022.85 1022.86 1023.70 1024.23 1024.72 1025.73 1026.65 1026.21 1025.75 1023.69 1020.61 1019.90 1019.75 1020.14 1021.47 1023.30 1024.96 1026.35
1013.39 1015.32 1016.06 1016.45 1017.13 1017.10 1017.54 1016.42 1013.38 1014.33 1015.09 1016.11 1017.73 1018.74 1019.03 1019.03 1019.19 1019.33 1018.97 1018.40 1017.81 1018.09 1018.60 1019.81 1022.10 1023.30 1023.38 1023.35 1023.73 1024.06 1024.61 1025.07 1026.05 1027.36 1026.66 1024.31 1022.28 1020.79 1020.33 1020.60 1021.01 1021.99 1023.30 1024.82 1026.14
1012.33 1014.42 1015.23 1015.86 1017.24 1017.63 1016.95 1013.91 1013.00 1012.28 1013.77 1014.92 1015.61 1016.94 1018.25 1018.99 1019.36 1019.10 1018.70 1017.20 1017.11 1017.03 1017.61 1018.67 1021.73 1023.46 1024.16 1024.09 1024.26 1024.22 1024.49 1025.36 1026.20 1026.89 1026.05 1023.53 1022.34 1020.45 1020.52 1020.76 1021.58 1022.31 1023.39 1024.75 1026.01
1011.79 1013.57 1014.05 1015.45 1017.09 1017.62 1014.39 1013.51 1012.85 1012.13 1012.07 1013.58 1014.50 1016.19 1017.14 1018.30 1018.82 1018.47 1017.98 1017.04 1016.84 1017.32 1017.82 1018.69 1020.23 1024.06 1024.42 1024.20 1023.85 1024.77 1024.71 1025.22 1025.56 1025.64 1025.06 1023.66 1021.05 1018.37 1018.54 1019.45 1020.54 1021.67 1022.86 1024.15 1025.54
1010.50 1013.06 1014.07 1013.47 1016.78 1015.76 1013.57 1013.18 1012.30 1011.98 1012.15 1012.57 1013.37 1014.72 1016.03 1017.17 1018.08 1018.51 1017.76 1017.02 1016.61 1017.33 1018.43 1019.01 1020.55 1023.01 1023.49 1023.73 1023.74 1023.73 1024.01 1024.51 1025.26 1025.41 1024.88 1023.77 1020.21 1018.39 1018.51 1018.73 1020.02 1021.30 1022.37 1023.60 1024.79
1009.45 1012.74 1014.08 1013.49 1013.71 1013.46 1013.13 1012.55 1012.30 1012.13 1011.98 1012.74 1013.40 1014.03 1015.43 1016.33 1017.60 1018.08 1017.86 1018.15 1017.64 1017.98 1018.24 1019.14 1020.79 1022.97 1023.97 1024.42 1024.17 1023.81 1023.38 1023.62 1024.50 1024.69 1024.74 1023.89 1020.21 1019.08 1019.00 1019.21 1019.93 1021.12 1022.22 1023.50 1024.67
1008.69 1012.20 1014.00 1014.11 1011.46 1010.94 1011.61 1011.82 1012.00 1011.71 1011.95 1012.23 1012.83 1013.67 1015.35 1016.32 1017.04 1018.10 1018.85 1019.17 1018.95 1018.78 1018.89 1019.26 1020.38 1020.92 1021.44 1021.25 1021.79 1023.02 1022.56 1022.93 1023.93 1024.37 1022.68 1021.21 1019.31 1019.44 1019.69 1019.92 1020.34 1021.03 1022.07 1023.34 1024.71
1006.94 1008.96 1009.86 1011.65 1010.40 1009.70 1010.39 1010.56 1010.96 1011.31 1011.77 1011.70 1012.71 1012.58 1013.44 1016.12 1017.19 1017.89 1018.86 1020.02 1020.16 1019.93 1019.89 1020.32 1021.16 1021.39 1021.49 1021.41 1021.42 1021.53 1021.70 1022.14 1022.65 1021.29 1021.28 1018.32 1018.70 1016.99 1018.73 1019.38 1019.94 1020.64 1022.10 1023.37 1024.58
1005.91 1007.13 1008.87 1008.22 1009.59 1009.74 1009.10 1008.15 1008.20 1009.25 1009.75 1010.62 1011.05 1012.06 1012.80 1014.11 1014.64 1016.69 1017.57 1018.86 1019.11 1020.59 1020.80 1021.10 1021.74 1021.98 1022.27 1021.92 1021.80 1021.87 1021.68 1021.44 1020.97 1020.67 1019.74 1017.88 1016.70 1016.52 1017.20 1018.60 1019.99 1020.76 1021.74 1023.04 1024.09
1005.49 1005.81 1005.73 1006.49 1007.81 1008.39 1006.50 1004.58 1004.84 1008.21 1008.97 1008.77 1010.21 1011.60 1012.54 1013.57 1014.13 1015.12 1016.05 1017.13 1018.33 1019.41 1020.73 1021.53 1021.94 1022.73 1022.69 1022.18 1021.87 1021.40 1020.05 1019.49 1018.14 1018.10 1017.44 1017.37 1014.08 1015.92 1017.14 1017.92 1018.71 1020.01 1020.94 1021.78 1023.14
Wind_Speed
6 6 5 6 6 6 7 8 9 9 11 9 9 9 10 12 12 3 8 7 9 18 19 11 7 2 3 3 5 4 5 6 7 12 8 10 10 11 12 14 15 8 9 7 7
6 6 6 6 7 7 7 8 9 9 9 10 10 10 11 12 1 11 6 12 13 12 9 10 7 3 3 4 5 3 6 6 8 12 11 9 12 10 9 12 12 10 8 8 8
7 7 6 6 7 8 8 8 8 10 9 10 10 11 11 7 3 4 13 15 13 10 5 6 6 1 7 6 6 8 5 8 11 11 9 10 9 2 11 8 9 7 7 7 8
9 7 7 7 7 8 9 9 8 9 8 9 10 12 11 5 2 4 13 13 13 7 5 4 4 3 4 5 4 14 10 9 6 10 9 8 6 10 14 7 7 8 7 8 9
10 7 7 7 7 8 9 10 9 8 8 9 10 10 6 1 3 8 12 11 5 1 5 5 3 6 6 10 16 15 12 10 5 8 10 12 10 8 10 8 7 7 8 8 6
10 8 7 7 7 8 9 9 9 8 9 10 10 7 5 2 4 8 8 5 9 5 8 3 5 8 11 5 4 11 14 11 6 8 10 12 11 5 6 7 7 7 7 6 7
11 9 7 8 8 8 8 8 8 8 9 10 10 4 2 3 4 5 6 2 6 7 5 4 4 2 6 9 13 16 14 8 6 7 7 11 5 4 5 8 8 8 6 6 6
11 10 8 8 8 8 9 9 8 8 9 8 8 3 3 1 5 7 8 5 6 6 6 5 6 7 5 10 7 6 6 5 3 7 4 3 4 4 8 8 9 9 7 6 5
11 11 8 7 8 7 9 9 8 10 8 7 3 2 2 3 1 5 6 5 3 3 3 2 3 5 4 9 6 4 3 5 5 4 5 7 4 6 9 8 8 8 7 7 6
13 12 9 6 7 8 9 8 5 6 6 4 2 1 1 2 2 3 3 3 3 1 1 1 4 4 3 4 6 7 5 7 7 7 6 9 4 7 8 8 9 8 7 7 5
15 13 9 6 5 7 7 3 3 3 6 3 3 2 4 2 4 3 3 3 2 3 1 2 2 4 9 1 2 3 8 7 6 1 4 6 7 9 8 8 8 8 8 7 6
16 14 10 7 5 5 4 5 4 3 4 1 2 3 1 1 3 4 5 2 3 3 1 1 0 4 6 2 2 2 9 5 5 0 2 4 8 9 11 9 8 9 8 7 5
18 15 13 8 2 2 6 5 2 4 2 3 0 2 2 4 3 3 5 2 1 4 2 1 4 3 3 4 4 6 3 5 4 5 5 2 8 11 11 9 6 6 7 7 6
20 18 15 12 1 5 5 5 2 1 2 4 5 3 2 2 2 1 3 3 1 4 4 5 2 3 4 5 4 3 6 8 9 6 2 6 6 9 14 12 9 8 7 8 8
21 19 19 16 3 4 3 8 3 0 2 4 4 1 2 2 5 2 2 3 4 4 2 3 4 2 3 4 1 5 1 5 4 2 2 4 0 7 15 16 17 13 10 10 9
22 20 17 9 0 3 3 7 0 5 10 3 4 5 5 3 2 3 1 4 3 4 9 4 3 5 4 4 2 9 8 5 5 2 1 7 8 6 9 20 14 15 13 10 9
25 22 16 6 3 6 4 4 4 7 3 6 6 8 6 5 4 5 6 6 7 6 4 4 3 2 7 8 1 3 3 2 3 2 6 4 2 10 7 6 13 17 14 10 9
26 23 14 2 2 3 3 5 11 9 7 3 6 7 6 7 4 6 6 7 8 1 5 7 4 8 6 1 7 8 3 4 7 4 4 3 8 8 4 7 5 13 14 11 10
28 9 7 6 2 2 3 10 12 9 10 12 8 5 3 4 4 6 8 6 10 11 7 7 3 3 5 3 3 5 4 1 6 2 3 6 6 4 4 4 4 10 11 10 9
11 9 6 11 5 3 4 18 5 10 11 5 11 7 11 8 8 9 11 6 7 11 2 4 7 1 1 2 3 1 4 5 2 3 5 4 1 10 8 11 9 10 11 10 9
7 8 8 15 6 4 15 12 5 6 9 9 8 7 7 10 7 7 9 3 6 8 6 4 7 3 5 8 8 2 2 1 1 4 6 3 7 6 14 17 19 15 13 12 11
7 6 10 17 7 4 15 7 5 6 4 5 4 5 9 11 9 7 12 3 8 8 10 3 6 5 6 2 4 2 7 7 6 7 2 2 9 2 5 13 15 15 14 11 12
10 5 2 5 17 15 8 11 7 6 7 8 8 5 3 9 6 6 6 7 7 7 10 9 2 4 2 1 1 6 7 5 4 3 5 5 8 2 2 2 9 12 10 10 12
6 7 2 3 12 25 16 10 20 6 6 6 6 6 6 3 1 7 4 2 4 2 2 4 3 8 10 5 7 7 10 13 8 4 7 15 11 5 7 8 8 10 11 11 11
5 6 8 14 19 20 23 16 22 12 5 9 2 7 11 6 4 5 4 3 1 3 2 5 6 4 2 3 3 4 5 14 13 23 11 17 18 26 15 15 13 10 10 13 13
7 7 5 2 15 22 21 25 32 29 19 8 5 13 5 10 11 11 9 5 8 6 6 2 3 3 4 4 4 3 7 10 22 14 19 23 25 4 8 8 9 12 16 16 15
2 1 6 12 19 21 27 37 36 26 17 21 17 12 12 6 8 9 4 8 9 11 7 7 7 4 5 0 0 4 19 22 19 9 20 19 28 9 7 14 17 15 18 20 18
Wind_Direction
263 275 288 297 312 324 326 325 328 331 327 333 334 333 338 328 294 7 44 332 317 321 313 263 257 288 108 56 347 339 115 124 162 128 125 117 104 81 80 84 61 77 77 81 47
255 270 282 298 309 317 321 321 326 327 324 332 332 330 333 332 152 65 353 338 332 331 330 352 32 265 61 35 346 312 95 75 61 103 137 141 123 135 121 106 98 90 76 66 60
246 261 278 291 304 309 317 319 323 319 325 328 326 323 322 316 246 38 354 339 336 314 297 294 285 342 91 42 337 344 98 99 65 87 107 95 113 131 112 66 53 81 82 69 59
243 251 272 286 295 305 314 313 321 314 320 319 323 323 321 259 224 23 346 330 318 282 271 286 253 96 78 89 331 109 74 72 75 91 109 93 70 64 67 95 92 87 82 65 58
242 248 264 277 292 304 311 314 316 317 315 315 320 321 300 163 47 340 341 325 335 314 37 2 85 106 97 91 82 90 93 82 92 88 99 106 83 101 96 110 105 91 77 70 61
235 241 258 273 285 297 309 316 315 315 313 315 317 326 262 240 330 347 332 357 7 36 21 28 83 79 61 28 57 122 109 106 90 96 107 113 137 133 130 129 123 114 102 89 74
222 235 247 265 279 297 307 311 312 308 310 308 316 297 356 59 323 338 329 19 30 8 81 33 334 72 121 87 102 114 107 106 117 133 121 130 85 82 157 159 150 134 122 102 83
217 230 237 260 276 297 307 308 304 298 296 297 311 280 54 50 320 13 339 65 55 52 74 20 72 72 69 120 142 105 133 130 161 158 131 54 134 150 163 167 167 155 143 125 102
205 218 227 261 280 298 304 301 291 283 281 283 274 290 109 301 358 338 22 27 333 68 59 145 63 93 163 131 106 228 188 144 150 244 149 202 136 174 180 179 163 168 163 149 137
197 210 220 241 278 295 298 290 300 281 245 238 242 155 189 100 7 299 13 335 24 338 172 196 121 121 167 215 186 174 189 129 156 180 216 201 132 166 203 186 176 168 167 155 134
195 199 204 234 263 293 298 222 201 161 39 355 23 71 109 98 219 52 354 296 221 249 196 11 171 184 194 200 26 272 135 150 71 108 227 219 152 182 205 204 184 177 180 165 154
189 190 190 212 251 297 287 251 47 358 127 117 151 76 69 331 143 85 325 231 189 138 136 185 129 75 55 70 227 252 127 97 64 94 327 195 211 191 191 215 196 189 188 157 162
182 184 177 171 232 221 240 239 57 15 254 152 181 142 117 277 40 87 314 293 300 132 207 116 62 93 138 151 159 21 136 158 129 156 265 183 261 199 196 208 198 206 165 136 165
177 174 170 142 189 185 212 256 115 54 347 179 199 148 181 243 116 17 11 347 83 143 111 64 131 172 155 120 24 108 339 101 132 153 222 172 278 199 196 207 202 207 187 182 172
175 167 171 170 4 193 96 114 178 275 228 109 140 39 135 227 125 69 333 252 136 110 172 128 139 219 163 48 2 146 144 112 144 218 40 194 299 270 179 210 208 199 192 186 164
170 163 177 195 261 287 155 130 249 54 232 142 122 160 146 170 112 130 159 31 35 94 44 84 331 23 85 86 80 146 113 93 71 53 348 214 170 238 181 217 201 194 188 168 155
165 161 174 164 146 147 173 141 69 207 284 173 178 163 180 163 155 191 169 170 157 124 157 125 115 56 145 87 25 295 148 51 350 11 224 18 239 258 206 177 196 187 173 157 149
160 158 183 178 39 180 214 76 211 174 204 164 128 157 184 149 181 189 168 191 238 199 118 151 243 164 196 257 174 201 201 177 205 194 212 113 233 255 342 140 165 160 154 147 152
148 158 174 196 246 177 217 213 199 181 162 140 98 116 218 187 149 160 203 218 188 197 162 162 110 35 13 358 17 175 196 59 97 52 55 218 267 299 161 136 116 139 145 152 158
150 150 185 156 160 232 203 223 209 141 128 156 161 161 178 184 178 187 185 217 191 175 120 150 107 170 118 298 22 10 159 93 336 196 258 257 243 244 209 200 181 174 166 160 161
141 151 144 134 127 221 215 208 213 153 138 155 178 143 168 175 192 200 198 268 154 151 134 127 111 117 133 214 177 152 221 224 73 181 199 261 243 208 206 189 190 190 178 173 163
143 177 175 142 161 217 223 168 234 169 132 181 126 110 158 159 168 212 203 308 138 136 157 183 108 159 194 66 13 251 205 172 146 231 227 153 266 38 360 182 183 186 180 174 158
162 104 277 240 180 216 223 204 235 165 164 175 188 139 153 158 130 204 165 309 116 160 161 188 175 91 342 2 6 220 195 201 104 60 208 149 261 30 350 73 178 171 173 157 152
122 128 137 231 237 197 187 201 212 171 165 162 143 113 117 106 69 169 122 13 8 23 81 116 154 175 189 155 130 194 198 194 143 143 209 220 249 226 221 211 191 169 158 155 152
149 165 178 184 216 213 189 174 196 190 224 159 205 197 159 124 88 142 107 125 321 156 63 132 187 130 236 112 146 199 191 191 196 225 200 240 226 241 207 201 200 169 151 153 160
147 154 148 165 196 200 192 206 198 197 172 197 184 185 178 157 177 180 138 184 188 168 161 183 184 99 313 165 160 201 252 227 219 232 252 258 265 150 213 150 167 174 167 176 179
24 17 139 168 188 184 204 208 207 185 211 197 182 159 188 175 101 96 95 126 148 152 158 148 133 123 245 195 156 277 217 222 223 191 227 237 246 150 194 181 189 181 182 184 181